Collingwood, Ontario

2:53 PM EST on February 19, 2017 (GMT -0500)
Collingwood

Weather History for CWCO - October, 2012

Change the Weather History Date:

Tuesday, October 30, 2012

  Actual Average (CYBN) Record (CYBN)
Temperature  
Mean Temperature 44 °F -  
Max Temperature 49 °F 48 °F 69 °F (2004)
Min Temperature 38 °F 33 °F 19 °F (2008)
Degree Days  
Heating Degree Days 22    
Moisture  
Dew Point 42 °F    
Average Humidity 88    
Maximum Humidity 94    
Minimum Humidity 80    
Precipitation  
Precipitation 0.28 in - - ()
Sea Level Pressure  
Sea Level Pressure 29.42 in    
Wind  
Wind Speed 15 mph ()    
Max Wind Speed 29 mph    
Max Gust Speed 37 mph    
Averages and records for this station are not official NWS values.
T = Trace of Precipitation, MM = Missing Value Source: Averaged Metar Reports

Daily Weather History Graph

Daily Weather History Graph

Search for Another Location

Airport or City:

Trip Planner

Search our weather history database for the weather conditions in past years. The results will help you decide how hot, cold, wet, or windy it might be!

Date:

Astronomy

Oct. 30, 2012 Rise Set
Actual Time 7:56 AM EDT 6:12 PM EDT
Civil Twilight 7:26 AM EDT 6:42 PM EDT
Nautical Twilight 6:51 AM EDT 7:16 PM EDT
Astronomical Twilight 6:17 AM EDT 7:50 PM EDT
Moon 6:37 PM EDT (10/30) 8:44 AM EDT (10/30)
Length of Visible Light 11h 16m
Length of Day
10h 15m
Full, 99% of the Moon is Illuminated
Oct 30
Full
Nov 6
Last Quarter
Nov 13
New
Nov 20
First Quarter
Nov 28
Full

Hourly Weather History & Observations

Time (EDT) Temp. Windchill Dew Point Humidity Pressure Visibility Wind Dir Wind Speed Gust Speed Precip Events Conditions
12:00 AM 39.6 °F 28.1 °F 36.3 °F 88% 29.62 in - North 28.8 mph 36.8 mph 0.05 in   Unknown
1:00 AM 39.6 °F 28.7 °F 36.5 °F 89% 29.57 in - North 25.3 mph 36.8 mph 0.03 in   Unknown
2:00 AM 40 °F - 37 °F 83%  in - North 24.2 mph - -  
2:00 AM 39.7 °F 29.2 °F 36.7 °F 89% 29.53 in - North 24.2 mph 32.2 mph 0.08 in   Unknown
3:00 AM 40.3 °F 31.0 °F 37.8 °F 91% 29.49 in - North 19.6 mph 27.6 mph 0.18 in   Unknown
4:00 AM 40.5 °F 30.9 °F 36.5 °F 86% 29.47 in - North 20.7 mph 29.9 mph 0.07 in   Unknown
5:00 AM 40.6 °F 32.0 °F 36.7 °F 86% 29.45 in - North 17.3 mph - N/A   Unknown
6:00 AM 41.4 °F 32.7 °F 37.2 °F 85% 29.44 in - North 18.4 mph 25.3 mph N/A   Unknown
7:00 AM 41.5 °F 33.5 °F 37.9 °F 87% 29.43 in - North 16.1 mph 24.2 mph N/A   Unknown
8:00 AM 42 °F - 38 °F 80% 29.42 in - North 15.0 mph - -  
8:00 AM 42.1 °F 34.5 °F 37.9 °F 85% 29.42 in - North 15.0 mph 20.7 mph N/A   Unknown
9:00 AM 42.6 °F 35.6 °F 38.8 °F 86% 29.42 in - North 13.8 mph 21.9 mph N/A   Unknown
10:00 AM 43.3 °F 36.8 °F 39.2 °F 85% 29.41 in - North 12.7 mph 19.6 mph N/A   Unknown
12:00 PM 45.9 °F 40.0 °F 41.2 °F 84% 29.39 in - North 12.7 mph - N/A   Unknown
1:00 PM 46.9 °F - 42.3 °F 84% 29.37 in - North 11.5 mph - N/A   Unknown
2:00 PM 47 °F - 43 °F 81% 29.36 in - North 11.5 mph - -  
2:00 PM 46.8 °F - 43.0 °F 87% 29.36 in - North 11.5 mph - N/A   Unknown
3:00 PM 47.8 °F - 44.6 °F 89% 29.35 in - North 6.9 mph - 0.01 in   Unknown
4:00 PM 49.1 °F - 46.9 °F 92% 29.36 in - ENE 2.3 mph - 0.05 in   Unknown
5:00 PM 48.7 °F - 46.4 °F 92% 29.36 in - North 15.0 mph - 0.04 in   Unknown
6:00 PM 48.4 °F - 46.4 °F 93% 29.37 in - North 10.4 mph - 0.09 in   Unknown
7:00 PM 49.5 °F - 47.7 °F 94% 29.39 in - NNE 8.1 mph - 0.02 in   Unknown
8:00 PM 49 °F - 48 °F 94% 29.39 in - NNE 11.5 mph - -  
8:00 PM 49.5 °F - 47.8 °F 94% 29.39 in - NNE 11.5 mph - N/A   Unknown
9:00 PM 49.8 °F - 48.2 °F 94% 29.41 in - ENE 6.9 mph - 0.04 in   Unknown
10:00 PM 49.6 °F - 47.3 °F 92% 29.42 in - East 4.6 mph - N/A   Unknown
11:00 PM 48.6 °F - 43.7 °F 83% 29.42 in - East 5.8 mph - N/A   Unknown